Retour au catalogue

STARLINK-32584

ActifCommunicationsVLEO
NORAD 62179·PAYLOAD·🇺🇸 United States

Lancé Nov 30, 2024 depuis Vandenberg Space Force Base

Loading…

Prochains Passages (prochaines 24 heures)

TLE

FraisSource: CelesTrak SupGP

Époque: Sep 14, 2026, 20:57 UTC

1 62179C 24225S   26257.87340278  .00021515  00000+0  18027-2 0  2571
2 62179  70.0018  47.3689 0002900 273.4279  78.5536 14.98327940    17

Suivez STARLINK-32584 en temps réel avec AllMySat

Download on the App Store